Weather History for Branson, MO

Change the Weather History Date:

Monday, July 8, 2013

  Actual Average (KHRO) Record (KHRO)
Temperature  
Mean Temperature 82 °F 78 °F  
Max Temperature 93 °F 89 °F 100 °F (1941)
Min Temperature 71 °F 67 °F 54 °F (1983)
Degree Days  
Heating Degree Days 0 0  
Month to date heating degree days 0  
Since 1 June heating degree days 6  
Since 1 July heating degree days 0  
Cooling Degree Days 17 13  
Month to date cooling degree days 100  
Year to date cooling degree days 504  
Since 1 June cooling degree days 365  
Growing Degree Days 32 (Base 50)    
Moisture  
Dew Point 64 °F    
Average Humidity 60    
Maximum Humidity 83    
Minimum Humidity 32    
Precipitation  
Precipitation 0.00 in 0.10 in 2.83 in (2010)
Month to date precipitation 0.81  
Year to date precipitation 23.05  
Snow  
Snow 0.00 in 0.00 in - ()
Month to date snowfall 0.0  
Since 1 June snowfall 0.0  
Since 1 July snowfall 0.0  
Snow Depth -    
Sea Level Pressure  
Sea Level Pressure 30.11 in    
Wind  
Wind Speed 6 mph (SSE)    
Max Wind Speed 13 mph    
Max Gust Speed -    
Visibility 10 miles    
Events      
T = Trace of Precipitation, MM = Missing Value Source: NWS Daily Summary

Daily Weather History Graph

Daily Weather History Graph

Search for Another Location

Airport:

Trip Planner

Search our weather history database for the weather conditions in past years. The results will help you decide how hot, cold, wet, or windy it might be!

Date:

Astronomy

Jul. 08, 2013 Rise Set
Actual Time 6:01 AM CDT 8:33 PM CDT
Civil Twilight 5:31 AM CDT 9:03 PM CDT
Nautical Twilight 4:54 AM CDT 9:41 PM CDT
Astronomical Twilight 4:13 AM CDT 10:22 PM CDT
Moon 6:29 AM CDT (7/8) 8:39 PM CDT (7/8)
Length of Visible Light 15h 31m
Length of Day
14h 31m
Waxing Crescent, 0% of the Moon is Illuminated
Jul 8
Waxing Crescent
Jul 15
First Quarter
Jul 22
Full
Jul 29
Last Quarter
Aug 6
New

Hourly Weather History & Observations

Time (CDT) Temp. Heat Index Dew Point Humidity Pressure Visibility Wind Dir Wind Speed Gust Speed Precip Events Conditions
12:15 AM 77.0 °F - 62.6 °F 61% 30.10 in 10.0 mi SSE 5.8 mph - N/A   Clear
12:35 AM 77.0 °F - 62.6 °F 61% 30.10 in 10.0 mi SSE 4.6 mph - N/A   Clear
12:55 AM 75.2 °F - 62.6 °F 65% 30.10 in 10.0 mi SSE 5.8 mph - N/A   Clear
1:15 AM 77.0 °F - 62.6 °F 61% 30.10 in 10.0 mi SSE 5.8 mph - N/A   Clear
1:35 AM 75.2 °F - 62.6 °F 65% 30.10 in 10.0 mi SSE 8.1 mph - N/A   Clear
1:55 AM 75.2 °F - 62.6 °F 65% 30.10 in 10.0 mi South 5.8 mph - N/A   Clear
2:15 AM 75.2 °F - 62.6 °F 65% 30.10 in 10.0 mi SSE 6.9 mph - N/A   Clear
2:35 AM 75.2 °F - 64.4 °F 69% 30.10 in 10.0 mi South 6.9 mph - N/A   Clear
2:55 AM 75.2 °F - 64.4 °F 69% 30.10 in 10.0 mi SSE 5.8 mph - N/A   Clear
3:15 AM 75.2 °F - 64.4 °F 69% 30.10 in 10.0 mi South 6.9 mph - N/A   Clear
3:35 AM 75.2 °F - 64.4 °F 69% 30.10 in 10.0 mi South 6.9 mph - N/A   Clear
3:55 AM 75.2 °F - 64.4 °F 69% 30.10 in 10.0 mi South 5.8 mph - N/A   Clear
4:15 AM 73.4 °F - 66.2 °F 78% 30.10 in 10.0 mi SSE 5.8 mph - N/A   Clear
4:35 AM 73.4 °F - 66.2 °F 78% 30.10 in 10.0 mi SSE 5.8 mph - N/A   Clear
4:55 AM 73.4 °F - 66.2 °F 78% 30.11 in 10.0 mi SSE 5.8 mph - N/A   Clear
5:15 AM 73.4 °F - 66.2 °F 78% 30.11 in 10.0 mi SSE 5.8 mph - N/A   Clear
5:55 AM 71.6 °F - 66.2 °F 83% 30.11 in 10.0 mi South 4.6 mph - N/A   Clear
6:15 AM 71.6 °F - 66.2 °F 83% 30.12 in 10.0 mi South 4.6 mph - N/A   Clear
6:35 AM 71.6 °F - 66.2 °F 83% 30.12 in 10.0 mi South 3.5 mph - N/A   Clear
6:55 AM 73.4 °F - 66.2 °F 78% 30.13 in 10.0 mi South 5.8 mph - N/A   Scattered Clouds
7:51 AM 75.2 °F - 68.0 °F 78% 30.13 in 10.0 mi South 4.6 mph - N/A   Scattered Clouds
8:48 AM 78.8 °F - 68.0 °F 69% 30.15 in 10.0 mi SSW 3.5 mph - N/A   Mostly Cloudy
9:47 AM 82.4 °F 85.4 °F 68.0 °F 62% 30.15 in 10.0 mi SW 5.8 mph - N/A   Mostly Cloudy
10:47 AM 86.0 °F 89.4 °F 68.0 °F 55% 30.15 in 10.0 mi SSW 4.6 mph - N/A   Mostly Cloudy
11:45 AM 86.0 °F 88.2 °F 66.2 °F 51% 30.15 in 10.0 mi ESE 9.2 mph - N/A   Overcast
12:45 PM 89.6 °F 91.1 °F 64.4 °F 43% 30.14 in 10.0 mi SE 8.1 mph - N/A   Overcast
1:54 PM 91.4 °F 92.1 °F 62.6 °F 38% 30.12 in 10.0 mi South 11.5 mph - N/A   Mostly Cloudy
2:47 PM 93.2 °F 93.3 °F 60.8 °F 34% 30.11 in 10.0 mi South 9.2 mph - N/A   Mostly Cloudy
3:47 PM 91.4 °F 90.7 °F 59.0 °F 34% 30.10 in 10.0 mi South 12.7 mph - N/A   Mostly Cloudy
4:45 PM 91.4 °F 90.7 °F 59.0 °F 34% 30.09 in 10.0 mi SE 9.2 mph - N/A   Mostly Cloudy
5:45 PM 93.2 °F 92.6 °F 59.0 °F 32% 30.08 in 10.0 mi SSW 6.9 mph - N/A   Mostly Cloudy
6:45 PM 91.4 °F 92.1 °F 62.6 °F 38% 30.07 in 10.0 mi South 6.9 mph - N/A   Mostly Cloudy
7:45 PM 87.8 °F 89.4 °F 64.4 °F 46% 30.08 in 10.0 mi SSE 4.6 mph - N/A   Mostly Cloudy
8:45 PM 84.2 °F 85.6 °F 64.4 °F 51% 30.08 in 10.0 mi SSE 3.5 mph - N/A   Mostly Cloudy
8:55 PM 84.2 °F 85.6 °F 64.4 °F 51% 30.08 in 10.0 mi SSE 3.5 mph - N/A   Clear
9:15 PM 82.4 °F 83.9 °F 64.4 °F 54% 30.08 in 10.0 mi South 4.6 mph - N/A   Clear
9:35 PM 82.4 °F 83.9 °F 64.4 °F 54% 30.09 in 10.0 mi SSE 4.6 mph - N/A   Clear
9:55 PM 82.4 °F 83.9 °F 64.4 °F 54% 30.09 in 10.0 mi South 5.8 mph - N/A   Clear
10:15 PM 82.4 °F 83.9 °F 64.4 °F 54% 30.10 in 10.0 mi South 4.6 mph - N/A   Clear
10:35 PM 80.6 °F 82.3 °F 64.4 °F 58% 30.11 in 10.0 mi SSE 5.8 mph - N/A   Clear
10:55 PM 80.6 °F 82.3 °F 64.4 °F 58% 30.11 in 10.0 mi SSE 4.6 mph - N/A   Clear
11:15 PM 80.6 °F 82.3 °F 64.4 °F 58% 30.11 in 10.0 mi South 4.6 mph - N/A   Clear
11:35 PM 80.6 °F 82.3 °F 64.4 °F 58% 30.11 in 10.0 mi South 5.8 mph - N/A   Clear
11:55 PM 80.6 °F 82.3 °F 64.4 °F 58% 30.11 in 10.0 mi South 4.6 mph - N/A   Clear